User: anonymous   Login
Location: Carrières
(48.9495°N, 2.0407°E)
Time: 10:08:12
(UTC+00:00)
Language:

CZ-4 R/B - Orbit

View from above orbital plane
View from above orbital plane
View from above satellite
View from above satellite

Ground track
Ground track

The orbit data is extracted from the following two-line orbital elements,

1 29507U 06046C   23150.81763547  .00002821  00000-0  20449-3 0  9996
2 29507  97.6891 184.1380 0045116 137.9680 222.5022 15.03953742907034
Epoch (UTC): 30 May 2023 19:37:23
Eccentricity: 0.0045116
inclination: 97.6891°
perigee height: 523 km
apogee height: 586 km
right ascension of ascending node: 184.1380°
argument of perigee: 137.9680°
revolutions per day: 15.03953742
mean anomaly at epoch: 222.5022°
orbit number at epoch: 90703

The dashed part of the orbit path shows where the satellite is in the earth's shadow,  

DLR